Погода в Поповке

Россия / Ульяновская область     53°56′00″N   47°36′29″E
темп.,
°C
ветер,
м/с
пор.,
м/с
влажн.,
%
обл.,
%
осадки,
мм/ч
давл.,
гПа
погр.,
м
12 апреля, пн
пн1201:00+4с3799100 0.0 1033208
04:00+4всв51198100 0.0 1033248
07:00+4св41099100 0.0 1034281
10:00+5св51098100 0.0 1035302
13:00+8всв589599 0.0 1035343
16:00+11в5791100 0.0 1035365
19:00+10всв389564 0.0 1034164
22:00+8в3795100 0.0 1035112
13 апреля, вт
вт1301:00+7в389677 0.0 1035140
04:00+6вюв229592 0.0 103522
07:00+6вюв229469 0.0 103527
10:00+12юв477560 0.0 1035343
13:00+16ююв575173 0.0 1034832
16:00+17ююв564525 0.0 10321058
19:00+14юв336211 0.0 103139
22:00+10ююв33715 0.0 103232
14 апреля, ср
ср1401:00+8ююв33665 0.0 103124
04:00+6юв22705 0.0 103114
07:00+6вюв22745 0.0 103026
10:00+11юв47655 0.0 1029361
13:00+15юв57575 0.0 1028840
16:00+16юв56535 0.0 10261058
19:00+14юв36672 0.0 1025130
22:00+11юв33810 0.0 102534
15 апреля, чт
чт1501:00+9юв22870 0.0 102417
04:00+8юв22880 0.0 102311
07:00+7юв22890 0.0 102318
10:00+13юв23660 0.0 1022334
13:00+16ююв34485 0.0 10211238
16:00+18ю34412 0.0 10191838
19:00+16юв22563 0.0 101917
22:00+12юв226596 0.0 101910
16 апреля, пт
пт1601:00+10ююв117297 0.0 101810
04:00+9ю007660 0.0 101810
07:00+9ссз11765 0.0 101810
10:00+14с11605 0.0 1018281
13:00+17с33495 0.0 10181061
16:00+18с44435 0.0 10171793
19:00+15ссв6105752 0.0 1018424
22:00+9св8137892 0.1 1022527